CDT,Max TemperatureF,Mean TemperatureF,Min TemperatureF,Max Dew PointF,MeanDew PointF,Min DewpointF,Max Humidity, Mean Humidity, Min Humidity, Max Sea Level PressureIn, Mean Sea Level PressureIn, Min Sea Level PressureIn, Max VisibilityMiles, Mean VisibilityMiles, Min VisibilityMiles, Max Wind SpeedMPH, Mean Wind SpeedMPH, Max Gust SpeedMPH,PrecipitationIn, CloudCover, Events, WindDirDegrees
2013-5-1,66,50,35,55,37,32,93,88,55,30.45,30.15,29.75,10,5,2,33,23,44,0.07,8,Rain-Snow,17
2013-5-2,55,43,33,32,28,23,96,63,32,30.59,30.51,30.44,10,9,2,30,19,40,0.04,6,Snow,358
2013-5-3,61,43,27,28,25,21,85,52,24,30.44,30.23,30.07,10,10,10,24,9,30,0.00,0,,344
2013-5-4,55,42,30,36,29,23,73,59,42,30.17,30.08,30.03,10,10,10,28,16,39,0.00,5,,351
2013-5-5,66,53,42,45,41,36,85,67,47,30.22,30.15,30.08,10,10,10,17,12,23,0.00,5,,12
2013-5-6,70,54,39,48,42,36,100,73,30,30.16,30.10,30.02,10,10,5,12,4,,0.00,1,,97
2013-5-7,73,62,52,58,53,48,93,75,46,30.04,29.97,29.84,10,9,2,32,12,53,0.51,6,Rain-Thunderstorm,150
2013-5-8,77,64,54,61,55,48,90,75,52,29.98,29.86,29.77,10,9,2,23,14,30,0.85,3,Rain-Thunderstorm,125
2013-5-9,69,58,51,55,52,50,96,80,56,30.05,29.96,29.85,10,10,4,17,12,23,0.01,6,,336
2013-5-10,73,61,51,52,50,46,94,76,41,30.12,30.07,30.03,10,8,3,17,9,23,0.00,4,,334
2013-5-11,66,58,48,48,38,28,89,53,24,30.31,30.22,30.09,10,10,10,22,11,33,0.00,0,,14
2013-5-12,75,58,41,49,42,35,82,59,38,30.26,30.14,30.03,10,10,10,24,11,30,0.00,1,Rain,139
2013-5-13,90,66,44,58,49,42,93,59,26,30.05,29.98,29.87,10,10,10,20,11,23,0.00,0,,166
2013-5-14,97,78,61,57,45,39,73,37,14,29.86,29.77,29.67,10,10,10,31,16,39,0.00,0,,199
2013-5-15,88,74,62,60,54,50,87,52,31,29.80,29.75,29.71,10,10,10,18,13,28,0.00,0,,176
2013-5-16,79,70,60,61,59,56,100,79,48,29.88,29.82,29.74,10,7,0,17,9,22,0.00,4,Fog,176
2013-5-17,86,70,57,62,59,55,94,69,41,29.88,29.81,29.74,10,10,5,20,10,24,0.00,0,,158
2013-5-18,88,77,66,68,64,48,93,73,28,29.83,29.71,29.53,10,7,2,28,14,39,0.07,5,Rain-Thunderstorm,137
2013-5-19,81,70,57,58,55,50,84,61,41,29.71,29.59,29.49,10,10,2,36,11,45,0.06,1,Rain-Thunderstorm,239
2013-5-20,79,64,51,54,48,41,89,60,30,29.78,29.71,29.63,10,10,10,22,10,34,0.00,1,,268
2013-5-21,73,61,50,46,44,41,83,56,33,29.83,29.79,29.73,10,10,10,26,13,37,0.00,2,,300
2013-5-22,75,62,48,50,47,43,87,62,37,29.99,29.88,29.83,10,10,10,18,10,24,0.00,2,,328
2013-5-23,72,60,48,53,49,46,93,68,49,30.16,30.11,30.01,10,10,10,22,11,24,0.00,2,Rain,62
2013-5-24,78,65,55,66,59,52,87,73,57,30.17,30.08,29.97,10,10,8,26,18,33,0.00,5,,142
2013-5-25,89,77,66,67,62,58,87,62,39,30.02,29.92,29.83,10,10,8,29,21,40,0.00,1,,172
2013-5-26,91,78,66,67,64,61,94,71,40,30.01,29.81,29.69,10,10,3,32,19,44,0.16,2,Rain-Thunderstorm,174
2013-5-27,91,80,70,70,67,64,84,68,44,29.69,29.57,29.43,10,10,2,33,21,46,0.19,1,Rain-Thunderstorm,144
2013-5-28,93,78,62,70,63,52,97,76,24,29.66,29.59,29.48,10,8,0,30,10,40,0.00,3,Fog,88
2013-5-29,84,71,59,66,63,54,90,78,58,29.61,29.51,29.42,10,10,8,33,24,47,0.02,3,Rain-Thunderstorm,155
2013-5-30,75,66,57,59,56,48,97,80,49,29.73,29.62,29.50,10,8,1,30,10,41,0.88,5,Rain-Thunderstorm,150
2013-5-31,82,68,55,56,48,35,93,54,19,29.82,29.70,29.64,10,10,10,23,8,29,0.00,0,,300